Date,TemperatureHighF,TemperatureAvgF,TemperatureLowF,DewpointHighF,DewpointAvgF,DewpointLowF,HumidityHigh,HumidityAvg,HumidityLow,PressureMaxIn,PressureMinIn,WindSpeedMaxMPH,WindSpeedAvgMPH,GustSpeedMaxMPH,PrecipitationSumIn
2013-3-1,61.0,56.2,47.0,17.0,11.2,6.0,21,17,14,0.00,40.00,18,12,30,0.00
2013-3-2,71.0,58.0,50.0,26.0,19.4,15.0,38,23,14,0.00,40.00,11,6,19,0.00
2013-3-3,60.0,52.0,40.0,39.0,21.9,14.0,96,34,20,0.00,40.00,17,11,30,0.00
2013-3-4,56.0,46.4,38.0,42.0,38.3,31.0,99,76,54,0.00,40.00,15,7,26,0.00
2013-3-5,60.0,49.9,40.0,46.0,36.1,25.0,98,62,34,0.00,40.00,12,5,23,0.00
2013-3-6,49.0,41.4,36.0,39.0,37.4,35.0,99,87,66,0.00,40.00,15,10,25,0.00
2013-3-7,42.0,39.3,37.0,41.0,37.2,33.0,99,93,74,0.00,40.00,14,9,27,0.00
2013-3-8,37.0,33.0,31.0,36.0,32.8,31.0,100,99,95,0.00,40.00,19,12,32,0.00
2013-3-9,39.0,35.6,32.0,38.0,35.0,31.0,100,97,83,0.00,40.00,17,9,29,0.00
2013-3-10,59.0,47.0,36.0,38.0,25.9,16.0,88,47,20,0.00,40.00,10,4,19,0.00
2013-3-11,65.0,53.9,43.0,37.0,21.7,9.0,72,31,15,0.00,40.00,10,5,17,0.00
2013-3-12,67.0,57.0,42.0,31.0,20.9,13.0,64,27,16,0.00,40.00,15,6,27,0.00
2013-3-13,72.0,63.3,54.0,27.0,21.6,18.0,35,21,13,0.00,40.00,15,7,24,0.00
2013-3-14,76.0,65.2,55.0,41.0,27.0,22.0,50,25,14,0.00,40.00,14,5,23,0.00
2013-3-15,73.0,64.0,54.0,46.0,33.7,26.0,67,34,19,0.00,40.00,12,6,18,0.00
2013-3-16,67.0,58.3,51.0,46.0,25.4,7.0,75,31,13,0.00,40.00,12,8,19,0.00
2013-3-17,69.0,55.5,47.0,49.0,34.1,24.0,90,47,21,0.00,40.00,9,6,16,0.00
2013-3-18,63.0,53.6,47.0,47.0,34.2,23.0,87,50,23,0.00,40.00,9,6,15,0.00
2013-3-19,62.0,53.2,44.0,44.0,35.5,27.0,87,53,38,0.00,40.00,12,7,23,0.00
2013-3-20,63.0,54.9,47.0,41.0,36.8,31.0,71,52,37,0.00,40.00,15,8,26,0.00
2013-3-21,61.0,51.4,45.0,46.0,39.5,32.0,97,66,34,0.00,40.00,13,8,23,0.00
2013-3-22,64.0,50.9,39.0,49.0,38.7,15.0,98,71,15,0.00,40.00,11,7,18,0.00
2013-3-23,62.0,53.1,42.0,39.0,17.9,8.0,74,28,13,0.00,40.00,13,6,22,0.00
2013-3-24,66.0,52.2,40.0,45.0,28.1,12.0,84,46,14,0.00,40.00,8,3,14,0.00
2013-3-25,69.0,56.8,43.0,44.0,30.0,16.0,70,38,16,0.00,40.00,8,3,15,0.00
2013-3-26,62.0,54.7,48.0,44.0,29.7,16.0,76,41,17,0.00,40.00,12,8,20,0.00
2013-3-27,59.0,51.3,45.0,43.0,30.1,16.0,89,47,26,0.00,40.00,13,8,25,0.00
2013-3-28,64.0,54.9,46.0,44.0,36.5,24.0,77,52,30,0.00,40.00,10,6,18,0.00
2013-3-29,68.0,57.5,44.0,51.0,38.0,29.0,90,52,26,0.00,40.00,9,4,14,0.00
2013-3-30,63.0,55.8,48.0,47.0,40.3,-99.9,88,60,39,0.00,40.00,10,6,18,0.00
2013-3-31,55.0,48.1,43.0,45.0,40.0,28.0,96,75,48,0.00,40.00,15,10,27,0.00